This is the latest recevied weather packets stored in our database for station/object KE5AKC. If no packets are shown the sender has not sent any weather packets the latest 1 day(s).
| Time | Temp. | Humidity | Pressure | Rain* | Wind** | Luminosity | Snow |
|---|---|---|---|---|---|---|---|
| 1778033194 | 26.11° C | 82% | 1008 hPa | 0 mm | - | 0 W/m² | - |
| 1778032589 | 26.11° C | 81% | 1007.6 hPa | 0 mm | - | 0 W/m² | - |
| 1778032286 | 26.11° C | 81% | 1008 hPa | 0 mm | - | 0 W/m² | - |
| 1778031678 | 26.11° C | 81% | 1007.6 hPa | 0 mm | - | 0 W/m² | - |
| 1778030770 | 26.11° C | 80% | 1007.6 hPa | 0 mm | - | 0 W/m² | - |
| 1778030466 | 26.11° C | 80% | 1007.3 hPa | 0 mm | - | 0 W/m² | - |
| 1778030165 | 26.11° C | 80% | 1007.3 hPa | 0 mm | - | 0 W/m² | - |
| 1778029560 | 26.11° C | 79% | 1007.3 hPa | 0 mm | - | 1 W/m² | - |
| 1778028953 | 26.67° C | 79% | 1007.3 hPa | 0 mm | - | 2 W/m² | - |
| 1778028649 | 26.67° C | 79% | 1007.3 hPa | 0 mm | - | 4 W/m² | - |
| 1778028347 | 26.67° C | 78% | 1007.3 hPa | 0 mm | - | 6 W/m² | - |
| 1778027740 | 26.67° C | 78% | 1007.3 hPa | 0 mm | - | 10 W/m² | - |
| 1778027436 | 26.67° C | 78% | 1006.9 hPa | 0 mm | - | 9 W/m² | - |
| 1778027132 | 26.67° C | 77% | 1006.9 hPa | 0 mm | - | 17 W/m² | - |
| 1778026828 | 26.67° C | 77% | 1006.9 hPa | 0 mm | - | 26 W/m² | - |
| 1778026222 | 27.22° C | 77% | 1006.9 hPa | 0 mm | - | 24 W/m² | - |
| 1778025011 | 27.22° C | 77% | 1006.6 hPa | 0 mm | - | 63 W/m² | - |
| 1778022590 | 27.22° C | 77% | 1007.3 hPa | 0 mm | - | 120 W/m² | - |
| 1778019860 | 28.89° C | 69% | 1006.9 hPa | 0 mm | - | 237 W/m² | - |
| 1778019254 | 28.89° C | 68% | 1006.9 hPa | 0 mm | - | 175 W/m² | - |
| 1778018648 | 28.89° C | 69% | 1006.9 hPa | 0 mm | - | 284 W/m² | - |
| 1778016833 | 28.89° C | 70% | 1007.3 hPa | 0 mm | - | 362 W/m² | - |
| 1778014710 | 29.44° C | 68% | 1008 hPa | 0 mm | - | 387 W/m² | - |
| 1778012589 | 30° C | 67% | 1008.3 hPa | 0 mm | - | 393 W/m² | - |
| 1778012286 | 30° C | 66% | 1008 hPa | 0 mm | - | 467 W/m² | - |
* Rain latest hour (hover to see other rain measurements)
** Current wind speed in m/s (hover to see current wind gust speed)